Williamtown, Australia

3:54 PM AEST on July 21, 2017 (GMT +1000)
Williamtown Military

Weather History for YWLM - February, 2013

Change the Weather History Date:

Thursday, February 28, 2013

  Actual Average Record
Temperature  
Mean Temperature 77 °F -  
Max Temperature 88 °F - - ()
Min Temperature 66 °F - - ()
Cooling Degree Days 12    
Growing Degree Days 27 (Base 50)    
Moisture  
Dew Point 66 °F    
Average Humidity 77    
Maximum Humidity 100    
Minimum Humidity 36    
Precipitation  
Precipitation 0.20 in - - ()
Sea Level Pressure  
Sea Level Pressure 29.80 in    
Wind  
Wind Speed 8 mph ()    
Max Wind Speed 21 mph    
Max Gust Speed -    
Visibility 6.9 miles    
Events Rain    
T = Trace of Precipitation, MM = Missing Value Source: Averaged Metar Reports

Daily Weather History Graph

Daily Weather History Graph

Search for Another Location

Airport or City:

Trip Planner

Search our weather history database for the weather conditions in past years. The results will help you decide how hot, cold, wet, or windy it might be!

Date:

Astronomy

Feb. 28, 2013 Rise Set
Actual Time 6:40 AM AEDT 7:29 PM AEDT
Civil Twilight 6:15 AM AEDT 7:54 PM AEDT
Nautical Twilight 5:45 AM AEDT 8:24 PM AEDT
Astronomical Twilight 5:15 AM AEDT 8:54 PM AEDT
Moon 8:38 PM AEDT (2/28) 8:46 AM AEDT (2/28)
Length of Visible Light 13h 39m
Length of Day
12h 49m
Waning Gibbous, 95% of the Moon is Illuminated
Feb 28
Waning Gibbous
Mar 5
Last Quarter
Mar 12
New
Mar 20
First Quarter
Mar 27
Full

Hourly Weather History & Observations

Time (AEDT) Temp. Heat Index Dew Point Humidity Pressure Visibility Wind Dir Wind Speed Gust Speed Precip Events Conditions
12:00 AM 71 °F - 65 °F 77% 29.88 in - NNE 6.9 mph - -  
12:00 AM 71.6 °F - 66.2 °F 83% 29.86 in 6.2 mi NNE 6.9 mph - N/A   Unknown
12:30 AM 71.6 °F - 64.4 °F 78% 29.86 in 6.2 mi NE 8.1 mph - N/A   Unknown
1:00 AM 71.6 °F - 64.4 °F 78% 29.86 in 6.2 mi NE 8.1 mph - N/A   Unknown
1:30 AM 71.6 °F - 64.4 °F 78% 29.83 in 6.2 mi NE 9.2 mph - N/A   Unknown
2:00 AM 71 °F - 64 °F 73% 29.84 in - NNE 6.9 mph - -  
2:00 AM 69.8 °F - 64.4 °F 83% 29.83 in 6.2 mi NNE 6.9 mph - N/A   Unknown
2:30 AM 69.8 °F - 64.4 °F 83% 29.83 in 6.2 mi NNE 9.2 mph - N/A   Unknown
3:00 AM 70 °F - 64 °F 77% 29.82 in - NNE 8.1 mph - -  
3:00 AM 69.8 °F - 64.4 °F 83% 29.80 in 6.2 mi NNE 8.1 mph - N/A   Unknown
3:30 AM 69.8 °F - 64.4 °F 83% 29.80 in 6.2 mi NNE 6.9 mph - N/A   Unknown
4:00 AM 69.8 °F - 64.4 °F 83% 29.80 in 6.2 mi NNE 8.1 mph - N/A   Unknown
4:30 AM 69.8 °F - 64.4 °F 83% 29.80 in 6.2 mi NNE 8.1 mph - N/A   Unknown
5:00 AM 68 °F - 64 °F 83% 29.81 in - NNW 5.8 mph - -  
5:00 AM 68.0 °F - 64.4 °F 88% 29.80 in 6.2 mi NNW 5.8 mph - N/A   Unknown
5:30 AM 68.0 °F - 64.4 °F 88% 29.80 in 6.2 mi NNE 5.8 mph - N/A   Unknown
6:00 AM 67 °F - 64 °F 88% 29.81 in 16 mi NNE 5.8 mph - -   Partly Cloudy
6:00 AM 68.0 °F - 64.4 °F 88% 29.80 in - NNE 5.8 mph - N/A   Clear
6:30 AM 66.2 °F - 64.4 °F 94% 29.80 in - North 4.6 mph - N/A   Clear
7:00 AM 66.2 °F - 64.4 °F 94% 29.80 in - North 5.8 mph - N/A   Clear
7:30 AM 68.0 °F - 64.4 °F 88% 29.83 in - NNE 5.8 mph - N/A   Clear
8:00 AM 70 °F - 65 °F 80% 29.83 in - North 5.8 mph - -  
8:00 AM 69.8 °F - 64.4 °F 83% 29.83 in - North 5.8 mph - N/A   Clear
8:30 AM 71.6 °F - 66.2 °F 83% 29.80 in - North 5.8 mph - N/A   Clear
9:00 AM 73 °F - 66 °F 73% 29.83 in 16 mi NNE 5.8 mph - -   Partly Cloudy
9:00 AM 73.4 °F - 66.2 °F 78% 29.80 in - NNE 5.8 mph - N/A   Clear
9:30 AM 75.2 °F - 66.2 °F 73% 29.80 in - North 5.8 mph - N/A   Clear
10:00 AM 77.0 °F - 66.2 °F 69% 29.80 in - North 6.9 mph - N/A   Clear
10:30 AM 77.0 °F - 66.2 °F 69% 29.80 in - North 6.9 mph - N/A   Clear
11:00 AM 82 °F - 67 °F 52% 29.81 in - North 6.9 mph - -  
11:00 AM 82.4 °F 85.4 °F 68.0 °F 62% 29.80 in - North 6.9 mph - N/A   Clear
11:30 AM 84.2 °F 86.6 °F 66.2 °F 55% 29.80 in - NNW 6.9 mph - N/A   Clear
12:00 PM 84 °F - 66 °F 46% 29.80 in 19 mi NNW 8.1 mph - -   Partly Cloudy
12:00 PM 84.2 °F 86.6 °F 66.2 °F 55% 29.77 in 6.2 mi NNW 8.1 mph - N/A   Mostly Cloudy
12:30 PM 84.2 °F 86.6 °F 66.2 °F 55% 29.77 in 6.2 mi North 8.1 mph - N/A   Mostly Cloudy
1:00 PM 86.0 °F 88.2 °F 66.2 °F 51% 29.77 in 6.2 mi North 8.1 mph - N/A   Mostly Cloudy
1:30 PM 86.0 °F 87.3 °F 64.4 °F 48% 29.74 in 6.2 mi NW 6.9 mph - N/A   Mostly Cloudy
2:00 PM 88 °F - 65 °F 36% 29.75 in - West 9.2 mph - -  
2:00 PM 87.8 °F 89.4 °F 64.4 °F 46% 29.74 in 6.2 mi West 9.2 mph - N/A   Mostly Cloudy
2:30 PM 86.0 °F 88.2 °F 66.2 °F 51% 29.74 in 6.2 mi WSW 6.9 mph - N/A   Scattered Clouds
3:00 PM 87 °F - 66 °F 39% 29.74 in 19 mi NW 5.8 mph - -   Partly Cloudy
3:00 PM 86.0 °F 88.2 °F 66.2 °F 51% 29.71 in 6.2 mi NW 5.8 mph - N/A   Mostly Cloudy
3:30 PM 84.2 °F 87.3 °F 68.0 °F 58% 29.71 in 6.2 mi ESE 12.7 mph - N/A   Mostly Cloudy
4:00 PM 82.4 °F 85.4 °F 68.0 °F 62% 29.71 in 6.2 mi ESE 9.2 mph - N/A   Mostly Cloudy
4:30 PM 84.2 °F 87.3 °F 68.0 °F 58% 29.71 in 6.2 mi East 8.1 mph - N/A   Mostly Cloudy
5:00 PM 81 °F - 66 °F 52% 29.73 in - East 9.2 mph - -  
5:00 PM 80.6 °F 82.7 °F 66.2 °F 61% 29.71 in 6.2 mi East 9.2 mph - N/A   Mostly Cloudy
6:00 PM 78 °F - 70 °F 69% 29.74 in - NE 9.2 mph - -  
6:00 PM 77.0 °F - 69.8 °F 78% 29.71 in 6.2 mi NE 9.2 mph - N/A   Mostly Cloudy
6:07 PM 75.2 °F - 68.0 °F 78% 29.74 in 6.2 mi South 17.3 mph - N/A   Mostly Cloudy
6:30 PM 69.8 °F - 66.2 °F 88% 29.77 in 6.2 mi South 18.4 mph - N/A   Mostly Cloudy
6:53 PM 69.8 °F - 66.2 °F 88% 29.77 in 6.2 mi SSW 19.6 mph - N/A   Mostly Cloudy
7:00 PM 68.0 °F - 66.2 °F 94% 29.77 in 6.2 mi SSW 18.4 mph - N/A   Mostly Cloudy
7:30 PM 68.0 °F - 64.4 °F 88% 29.77 in 6.2 mi SSW 20.7 mph - N/A   Mostly Cloudy
8:00 PM 68 °F - 65 °F 87% 29.80 in - SSW 20.7 mph - -  
8:00 PM 68.0 °F - 64.4 °F 88% 29.80 in 6.2 mi SSW 20.7 mph - N/A   Mostly Cloudy
8:30 PM 68.0 °F - 66.2 °F 94% 29.80 in 5.0 mi SSW 19.6 mph - N/A   Overcast
8:47 PM 68.0 °F - 66.2 °F 94% 29.83 in 3.7 mi SW 17.3 mph - N/A Rain Light Rain Showers
9:00 PM 67 °F - 65 °F 93% 29.84 in 5 mi SW 12.7 mph - -   Overcast
9:00 PM 68.0 °F - 66.2 °F 94% 29.83 in 5.0 mi SW 12.7 mph - N/A Rain Rain Showers
9:22 PM 66.2 °F - 64.4 °F 94% 29.83 in 6.2 mi SSW 17.3 mph - N/A Rain Rain Showers
9:30 PM 66.2 °F - 64.4 °F 94% 29.83 in 6.2 mi SSW 18.4 mph - N/A Rain Rain Showers
9:36 PM 66.2 °F - 64.4 °F 94% 29.83 in 6.2 mi SSW 18.4 mph - N/A Rain Rain Showers
9:51 PM 66.2 °F - 66.2 °F 100% 29.83 in 6.2 mi SSW 16.1 mph - N/A   Overcast
10:00 PM 66.2 °F - 64.4 °F 94% 29.83 in - SSW 17.3 mph - N/A Rain Light Rain Showers
10:30 PM 66.2 °F - 66.2 °F 100% 29.83 in 6.2 mi South 17.3 mph - N/A Rain Light Rain Showers
11:00 PM 67 °F - 65 °F 93% 29.85 in - SSW 16.1 mph - -  
11:00 PM 66.2 °F - 66.2 °F 100% 29.83 in 6.2 mi SSW 16.1 mph - N/A Rain Light Rain Showers
11:26 PM 66.2 °F - 66.2 °F 100% 29.83 in 3.7 mi SSW 17.3 mph - N/A Rain Light Rain Showers
11:30 PM 66.2 °F - 66.2 °F 100% 29.83 in 3.1 mi SSW 17.3 mph - N/A Rain Light Rain Showers